STARLINK-2680, 48432

Orbit data source: Space-Track

STARLINK-2680, 48432 is a payload satellite owned by SpaceX/Seattle (US) in LEO that was launched on Sun, 09 May 2021 UTC via an FALCON 9 launch vehicle from the Air Force Eastern Test Range (AFETR). Payload-class satellites include a variety of spacecraft equipped with specific instruments for various scientific and technological missions. These include communications satellites like Starlink; space stations such as the ISS; scientific satellites like the Hubble; Earth observation satellites from companies like Planet Labs, Umbra, and HawkEye 360; GPS; miniature CubeSats for education and research; and military/defense satellites.

Loading next visibility...
Identifier
48432, 2021-040E
Orbit
LEO
Country
Flag of USUS
Related business
Manufacturer
SpaceX/Seattle
Mission
Operational Commercial Communications
Bus & Motor
STARLINK, Unknown motor
Mass
260 kg wet, ~248 kg dry
Launch date (UTC)
2021-05-09 (5 years ago)
Launch vehicle
FALCON 9
Launch site
Air Force Eastern Test Range (AFETR)
Object type
Payload
Rocket body
Debris
Shape & HBR
Box + 1 Pan, 10.1 m
Radar Cross Section
13.562 m², Large (>1 m²)

Expand to show TLE details & history
Last TLE update: 2 days ago

TLE from 2 days ago
0 STARLINK-2680
1 48432U 21040E   26171.32324608  .00000589  00000-0  30756-4 0  9990
2 48432  53.1619  35.4394 0001282  94.9534 265.1614 15.31700483282743
Epoch: 2026-06-20T07:45Z
TLE epoch observation values (Epoch: 2026-06-20T07:45:28.461Z)
Latitude
Longitude
10.5313°
Altitude
471.713 km
Speed
7.631 km/s
True Right ascension
02h 21m 45s
True Declination
0° 00' 00"
Sunlit
Object was in daylight at epoch
Visualization orbit readout
Latitude
Unknown
Longitude
Unknown
Altitude
Unknown
Speed
Unknown
Apparent Right ascension
Unknown
Apparent Declination
Unknown
Sunlit
N/A
Visualization observer readout
Local Sidereal Time
21:24:31
Azimuth
Unknown
Elevation
Unknown
Doppler factor
Unknown
Orbital elements
Apogee altitude
471.873 km
Perigee altitude
470.117 km
Semi-major axis
6,849.132 km
Eccentricity
0.00013
Inclination
53.1619°
RAAN
35.4394°
Arg. of periapsis
94.9534°
True anomaly
265.14676°
Mean anomaly
265.1614°
Eccentric anomaly
265.15408°
Mean motion
3.82904 °/min
Orbital period
94.02 mins
BSTAR
0.000030756
Loading maneuver chart data...
Computing Atmospheric mass density...

Documentation

Showing up to 5 results
|